Regional Weather Roundup
Issued by NWS

Home | Current Version | Previous Version | Graphics & Text | Print | Product List | Glossary On
Versions: 1 2 3 4 5 6 7 8 9 10 11 12 13 14 15 16 17 18 19 20 21 22 23 24 25 26 27 28 29 30 31 32 33 34 35 36 37 38 39 40 41 42 43 44 45 46 47 48 49 50
000
ASUS45 KCYS 191010
RWRWY

WYOMING REGIONAL WEATHER ROUNDUP
NATIONAL WEATHER SERVICE CHEYENNE WY
300 AM MST SUN NOV 19 2017

NOTE:  "FAIR" INDICATES FEW OR NO CLOUDS BELOW 12,000 FEET
WITH NO SIGNIFICANT WEATHER AND/OR OBSTRUCTIONS TO VISIBILITY.

WYZ001-191100-
YELLOWSTONE NATIONAL PARK

CITY           SKY/WX    TMP DP  RH WIND       PRES   REMARKS
LK YELLOWSTONE   N/A     16  13  88 W3        30.26S
W YELLOWSTONE  NOT AVBL

$$
WYZ002>013-054>058-071-098>099-191100-
NORTHERN WYOMING

CITY           SKY/WX    TMP DP  RH WIND       PRES   REMARKS
JACKSON        CLOUDY     9   6  88 CALM        N/A
CODY           FAIR      29  16  58 VRB6      30.08F WCI  23
GREYBULL       FAIR      18  15  88 SE3       30.12F
WORLAND        FAIR      16  14  92 S6        30.12F WCI   7
SHERIDAN       FAIR      22  17  81 CALM      30.01F
BUFFALO        FAIR      31  13  47 CALM      30.03F
GILLETTE       FAIR      33  17  51 SW18      30.02F WCI  22
HULETT         FAIR      32  18  55 SW14      30.03F WCI  22
NEWCASTLE      FAIR      19  12  73 E5        30.11F WCI  13

$$
WYZ014>020-022>026-101>103-191100-
CENTRAL WYOMING

CITY           SKY/WX    TMP DP  RH WIND       PRES   REMARKS
BIG PINEY      FAIR       5   2  87 N9        30.30S WCI  -9
PINEDALE       FAIR       7   3  85 NW5       30.30S WCI  -2
DUBOIS         FAIR      27   9  46 NW18G25   30.13F WCI  13
LANDER         FAIR      18  12  77 SE9       30.13F WCI   7
RIVERTON       FAIR      24  13  62 W6        30.14F WCI  17
CASPER         FAIR      29  15  56 SW21G29   30.13F WCI  16
DOUGLAS        FAIR      20  16  84 CALM      30.11F

$$
WYZ021-027>030-104>119-191100-
SOUTHERN WYOMING

CITY           SKY/WX    TMP DP  RH WIND       PRES   REMARKS
EVANSTON       FAIR      18  16  92 S6        30.27F WCI  10
FORT BRIDGER   FAIR      19   9  63 S5        30.30F WCI  13
ROCK SPRINGS   FAIR      12   6  77 SW3       30.28F
DIXON          FAIR      15   8  73 SE5       30.36S WCI   8
RAWLINS        FAIR      22  13  68 SE6       30.26F WCI  14
SARATOGA       FAIR      19   9  63 S14       30.27F WCI   6
LARAMIE        FAIR      23  10  57 W14       30.19S WCI  11
CHEYENNE       FAIR      33  12  41 W17       30.17S WCI  22
TORRINGTON     FAIR      25  15  66 CALM      30.14F
PINE BLUFFS    FAIR      21  14  73 SW6       30.18F WCI  14

$$



USA.gov is the U.S. government's official web portal to all federal, state and local government web resources and services.